Tracking 35035 objects as of 16-Aug-2026
HD Live streaming from Space Station
objects crossing your sky now

COSMOS 57 DEB


COSMOS 57 DEB is no longer on orbit


NORAD ID: 1304
Int'l Code: 1965-012FY
Launch date: February 22, 1965
Source: Commonwealth of Independent States (former USSR) (CIS)
Launch site: TYURATAM MISSILE AND SPACE COMPLEX (TTMTR)
Decay date: 1965-03-28

Note: This is SATELLITE DEBRIS
Your satellite tracking list
Your tracking list is empty




NASA's NSSDC Master Catalog

Two Line Element Set (TLE):
1 01304U 65012 FY 65079.78857772  .01165487 +32019-2 +00000-0 0  9999
2 01304 064.7941 206.5708 0161194 064.7968 296.8657 16.00789287002352
Source of the keplerian elements: AFSPC